Weather Roundup
Issued by NWS Springfield, MO

Home | Current Version | Previous Version | Text Only | Print | Product List | Glossary On
Versions: 1 2 3 4 5 6 7 8 9 10 11 12 13 14 15 16 17 18 19 20 21 22 23 24 25 26 27 28 29 30 31 32 33 34 35 36 37 38 39 40 41 42 43 44 45 46 47 48 49 50
000
NZUS99 KSGF 270507
HRRSGF

HOURLY WEATHER
NATIONAL WEATHER SERVICE SPRINGFIELD MO
1200 AM CDT TUE JUN 27 2017

......SGF CWA......

CITY           SKY/WX    TMP DP  RH WIND       PRES   REMARKS
SPRINGFIELD    TSTM      62  61  96 SW7       30.15F FOG
JOPLIN         RAIN      65  64  97 E10       30.14R FOG
WEST PLAINS    CLOUDY    62  58  86 CALM      30.14R
ROLLA          CLOUDY    58  57  97 CALM      30.13S
OSAGE BEACH    CLOUDY    61  60  97 CALM      30.15R
BRANSON          N/A     63  57  82 SE6       30.15R

......SURROUNDING SGF CWA......

CITY           SKY/WX    TMP DP  RH WIND       PRES   REMARKS
CHANUTE        PTCLDY    64  62  93 E7        30.10F
PARSONS        LGT RAIN  66  62  87 VRB5      30.10F
COFFEYVILLE    CLOUDY    69  65  86 E13       30.09R
EMPORIA        PTCLDY    62  61  96 E7        30.12R
GROVE OK       MOCLDY    70  64  83 CALM      30.09R
ROGERS AR      PTCLDY    68  64  87 CALM      30.11R
SILOAM SPRINGS CLEAR     68  57  68 SE6       30.10R
HARRISON AR    CLEAR     63  59  87 SE7       30.13S
NEAR YELLVILLE PTCLDY    64  55  72 CALM      30.10S

......KANSAS AND MISSOURI......

CITY           SKY/WX    TMP DP  RH WIND       PRES   REMARKS
KANSAS CTY INT CLEAR     60  58  92 E6        30.15R
DOWNTOWN KC    CLEAR     61  58  90 NE3       30.14R
COLUMBIA       CLEAR     61  60  97 CALM      30.14R
SEDALIA        CLEAR     60  60 100 N3        30.16R
ST JOSEPH      CLEAR     57  57 100 CALM      30.14S
ST LOUIS       PTCLDY    63  55  75 W5        30.13R
SPIRIT OF STL  CLEAR     57  56  96 CALM      30.12R
KIRKSVILLE     CLEAR     56  55  97 CALM      30.15R
WICHITA        MOCLDY    68  65  90 E9        30.07R
TOPEKA         CLEAR     61  61 100 NE3       30.13R
OLATHE         CLEAR     59  58  96 NE5       30.14R

......TENNESSEE......

CITY           SKY/WX    TMP DP  RH WIND       PRES   REMARKS
MEMPHIS        PTCLDY    76  61  59 E8        30.09S
NASHVILLE      CLOUDY    68  56  65 S5        30.11R

......ARKANSAS.......

CITY           SKY/WX    TMP DP  RH WIND       PRES   REMARKS
FAYETTEVILLE   CLEAR     63  61  93 CALM      30.11R
FT SMITH       CLEAR     73  59  61 SE3       30.07R
LITTLE ROCK    PTCLDY    69  66  90 CALM      30.09S

......OKLAHOMA.......

CITY           SKY/WX    TMP DP  RH WIND       PRES   REMARKS
TULSA          CLOUDY    78  60  53 S12       30.04R
PONCA CITY     RAIN      71  63  75 SE12      30.05F
MCALESTER      PTCLDY    72  62  71 S3        30.08R
OKLAHOMA CITY  PTCLDY    71  60  68 S7        30.07R

......IOWA............

CITY           SKY/WX    TMP DP  RH WIND       PRES   REMARKS
DES MOINES     PTCLDY    62  43  49 NE5       30.15R
QUAD CITIES    CLEAR     55  47  74 CALM      30.13R

......ILLINOIS........

CITY           SKY/WX    TMP DP  RH WIND       PRES   REMARKS
QUINCY         PTCLDY    59  56  89 CALM      30.13R
CHICAGO        CLEAR     59  44  57 NW8       30.09S



USA.gov is the U.S. government's official web portal to all federal, state and local government web resources and services.